Flag Weather past 2 weeks in Salt Lake City, Utah, U.S.A.

Now
57 °F

Passing clouds.


Feels Like: 52 °F
Forecast: 41 / 54 °F
Wind: 23 mph from South

Location: Salt Lake City International Airport

Current Time: Nov 29, 2014 at 2:16:57 AM

Latest Report: Nov 29, 2014 at 1:53 AM


Visibility: 10 mi

Pressure: 29.62 "Hg

Humidity: 17%

Dew point: 13 °F

Location of Salt Lake CityLocation

Historic Weather in Salt Lake City — Graph

°F

Salt Lake City temperature yesterday

Maximum temperature yesterday: 66 °F (at 2:53 PM)
Minimum temperature yesterday: 44 °F (at 1:53 AM)
Average temperature yesterday: 55 °F

Past Weeks' High & Low Weather Summary

 TemperatureHumidityPressure
High66 °F (Nov 28, 2:53 PM)97% (Nov 15, 1:53 AM)30.64 "Hg (Nov 15, 1:53 AM)
Low16 °F (Nov 16, 3:53 AM)12% (Nov 28, 12:53 PM)29.62 "Hg (Nov 29, 12:53 AM)
Average37 °F60%30.19 "Hg
* Reported Nov 14 12:53 AM — Nov 29 12:53 AM, Salt Lake City, Weather by CustomWeather, © 2014

Note: Actual official high and low records may vary slightly from our data, if they occured in-between our weather recording intervals... More about our weather records

Advertising

Salt Lake City weather history for previous 24 hours

 ConditionsComfort  
Time TempWeatherWind HumidityBarometerVisibility
12:53 AM
Nov 29
58 °FPassing clouds.20 mph17%29.62 "Hg10 mi
11:53 PM
Nov 28
58 °FPassing clouds.25 mph16%29.63 "Hg10 mi
10:53 PM59 °FPartly cloudy.24 mph15%29.65 "Hg10 mi
9:53 PM59 °FPassing clouds.23 mph16%29.67 "Hg10 mi
8:53 PM58 °FPartly cloudy.16 mph18%29.69 "Hg10 mi
7:53 PM56 °FPassing clouds.12 mph20%29.72 "Hg10 mi
6:53 PM56 °FPassing clouds.13 mph20%29.74 "Hg10 mi
5:53 PM58 °FPassing clouds.14 mph18%29.75 "Hg10 mi
4:53 PM61 °FScattered clouds.16 mph16%29.75 "Hg10 mi
3:53 PM64 °FPartly sunny.17 mph14%29.75 "Hg10 mi
2:53 PM66 °FScattered clouds.21 mph13%29.77 "Hg10 mi
1:53 PM65 °FBroken clouds.22 mph12%29.80 "Hg10 mi
12:53 PM65 °FPartly sunny.18 mph12%29.83 "Hg10 mi
11:53 AM63 °FPartly sunny.16 mph14%29.86 "Hg10 mi
10:53 AM57 °FBroken clouds.12 mph23%29.92 "Hg10 mi
9:53 AM52 °FBroken clouds.14 mph30%29.94 "Hg10 mi
8:53 AM48 °FPartly sunny.5 mph36%29.96 "Hg10 mi
7:53 AM47 °FPartly sunny.10 mph37%29.95 "Hg10 mi
6:53 AM45 °FPassing clouds.8 mph42%29.96 "Hg10 mi
5:53 AM44 °FPassing clouds.8 mph45%29.97 "Hg10 mi
4:53 AM45 °FOvercast.5 mph44%29.98 "Hg10 mi
3:53 AM46 °FPassing clouds.9 mph42%29.99 "Hg10 mi
2:53 AM46 °FPassing clouds.10 mph42%30.00 "Hg10 mi
Weather by CustomWeather, © 2014

See weather overviewHow to use our weather pages